Погода в Косгоде

Шри-Ланка     6°20′17″N   80°01′46″E
темп.,
°C
ветер,
м/с
пор.,
м/с
влажн.,
%
обл.,
%
осадки,
мм/ч
давл.,
гПа
погр.,
м
12 августа, пт
пт1223:30+26зюз3690100 0.4 1010329
02:30+26зсз478917 1.2 1009407
05:30+26зсз489043 2.4 1009456
08:30+27зсз59834 1.1 1010813
11:30+28зсз59805 1.3 1010916
14:30+28з687893 0.0 1007903
17:30+27з478326 0.1 1008763
20:30+27з2488100 0.1 1009288
13 августа, сб
сб1323:30+26з2488100 0.8 1010294
02:30+26з4688100 0.8 1008395
05:30+26з468639 2.3 1008421
08:30+27з578112 0.7 1010752
11:30+28з6877100 1.5 1009871
14:30+28зсз697898 0.1 1007944
17:30+27зсз5982100 0.1 1007887
20:30+27зсз4686100 0.1 1009486
14 августа, вс
вс1423:30+26з4686100 0.1 1009428
02:30+26з5887100 0.1 1007588
05:30+26з5785100 0.6 1008504
08:30+27з588197 0.2 1010810
11:30+28з697766 0.3 10101070
14:30+28з6877100 0.1 10081017
17:30+27з5983100 0.2 1008844
20:30+27з4785100 0.1 1010463
15 августа, пн
пн1523:30+26з478647 0.3 1009442
02:30+26зюз5785100 0.2 1008482
05:30+26з588448 0.5 1008509
08:30+27з477999 0.2 1010707
11:30+28з567531 0.3 1010929
14:30+28зюз567561 0.1 1008917
17:30+27з568098 0.3 1008672
20:30+27зюз5782100 0.2 1010422
16 августа, вт
вт1623:30+27зюз578582 0.4 1010473
02:30+26зюз578589 0.4 1009494
05:30+26зюз578422 0.9 1009424
08:30+27зюз567846 0.2 1011645
11:30+28з567416 0.3 1010879
14:30+28з567432 0.1 1008897
17:30+27зюз4580100 0.2 1008585
20:30+27зюз468399 0.3 1010326